Location: Blachownia
(50.7807°N, 18.9578°E)
Time: 01:08:54
(UTC+01:00)

ISS - Pass Details

Date: 02 February 2019
Orbit: 403 x 411 km, 51.6° (Epoch: 19 February)

Event Time Altitude Azimuth Distance (km) Brightness Sun altitude
Rises 18:05:10 0° 278° (W) 2,336 1.6 -14.0°
Reaches altitude 10° 18:07:16 10° 280° (W) 1,476 0.2 -14.4°
Maximum altitude 18:10:35 80° 8° (N) 422 -3.9 -14.9°
Enters shadow 18:11:52 34° 90° (E) 694 -3.2 -15.1°
